Voltar ao catálogo

STARLINK-32107

AtivoComunicaçõesVLEO
NORAD 59694·PAYLOAD·🇺🇸 United States

Lançado May 8, 2024 de Cape Canaveral Space Force Station

Loading…

Próximas Passagens (próximas 24 horas)

TLE

AtualizadoSource: CelesTrak SupGP

Época: Sep 15, 2026, 02:49 UTC

1 59694C 24086N   26258.11784722 -.00021359  00000+0 -77342-3 0  2583
2 59694  43.0039  70.3620 0001685 270.8828 308.5634 15.27596960    17

Acompanhe STARLINK-32107 em tempo real com AllMySat

Download on the App Store